CW5019 Weather Reports


time (UTC)temp
C
wind
direction
speed
KPH
gust
KPH
rain 1hr
cm
rain 24hr
cm
rain mn
cm
humidity
%
barometer
mb
20260505014827 23 343 1.6 3.2 0.00 0.00 0.00 76 1009.2
20260505014324 23 348 0.0 0.0 0.00 0.00 0.00 76 1009.1
20260505013820 23 14 0.0 0.0 0.00 0.00 0.00 75 1009.2
20260505013318 23 14 0.0 0.0 0.00 0.00 0.00 75 1009.1
20260505012816 23 14 0.0 0.0 0.00 0.00 0.00 75 1009.1
20260505012313 23 12 0.0 0.0 0.00 0.00 0.00 74 1009.1
20260505011809 23 32 0.0 0.0 0.00 0.00 0.00 74 1008.8
20260505011306 23 352 0.0 0.0 0.00 0.00 0.00 73 1008.9
20260505010802 23 351 0.0 1.6 0.00 0.00 0.00 73 1009.1
20260505010258 23 349 0.0 0.0 0.00 0.00 0.00 73 1008.8
20260505005754 23 3 0.0 0.0 0.00 0.00 0.00 72 1009.0
20260505005252 24 7 1.6 3.2 0.00 0.00 0.00 72 1009.1
20260505004749 24 335 0.0 0.0 0.00 0.00 0.00 71 1009.1
20260505004245 24 354 0.0 0.0 0.00 0.00 0.00 71 1009.1
20260505003742 24 3 0.0 1.6 0.00 0.00 0.00 71 1009.0
20260505003240 24 334 1.6 1.6 0.00 0.00 0.00 70 1009.0
20260505002736 24 341 0.0 0.0 0.00 0.00 0.00 70 1008.9
20260505002234 25 336 0.0 0.0 0.00 0.00 0.00 70 1008.9
20260505001731 25 16 0.0 0.0 0.00 0.00 0.00 70 1009.0
20260505001228 25 351 0.0 0.0 0.00 0.00 0.00 69 1009.2
20260505000725 25 50 0.0 0.0 0.00 0.00 0.00 69 1009.1
20260505000223 25 332 0.0 0.0 0.00 0.00 0.00 69 1008.9
20260504235719 25 11 0.0 0.0 0.00 0.00 0.00 69 1009.1
20260504235215 25 336 1.6 3.2 0.00 0.00 0.00 68 1009.1
20260504234713 25 0 0.0 0.0 0.00 0.00 0.00 68 1009.1
20260504234210 25 80 0.0 1.6 0.00 0.00 0.00 68 1009.3
20260504233706 25 356 0.0 3.2 0.00 0.00 0.00 67 1009.2
20260504233202 25 344 0.0 0.0 0.00 0.00 0.00 66 1009.0
20260504232700 25 26 1.6 4.8 0.00 0.00 0.00 66 1009.1
20260504232156 26 343 0.0 0.0 0.00 0.00 0.00 66 1009.3
20260504231653 26 0 0.0 0.0 0.00 0.00 0.00 65 1009.1
20260504231149 26 27 0.0 0.0 0.00 0.00 0.00 65 1009.4
20260504230646 26 354 0.0 0.0 0.00 0.00 0.00 64 1009.5
20260504230145 26 324 1.6 3.2 0.00 0.00 0.00 64 1009.4
20260504225643 26 339 0.0 0.0 0.00 0.00 0.00 63 1009.7
20260504225138 26 4 0.0 0.0 0.00 0.00 0.00 63 1009.6
20260504224635 26 342 0.0 0.0 0.00 0.00 0.00 62 1009.5
20260504224132 26 339 0.0 0.0 0.00 0.00 0.00 62 1009.6
20260504223629 26 117 0.0 0.0 0.00 0.00 0.00 62 1009.7
20260504223125 26 337 0.0 0.0 0.00 0.00 0.00 62 1009.7
20260504222622 26 9 0.0 0.0 0.00 0.00 0.00 61 1009.8
20260504222119 26 4 0.0 1.6 0.00 0.00 0.00 62 1009.7
20260504221616 26 37 0.0 1.6 0.00 0.00 0.00 61 1010.0
20260504221113 26 356 0.0 1.6 0.00 0.00 0.00 62 1009.8
20260504220610 26 26 0.0 0.0 0.00 0.00 0.00 62 1010.0
20260504220108 26 1 0.0 0.0 0.00 0.00 0.00 61 1009.8
20260504215603 26 349 0.0 1.6 0.00 0.00 0.00 60 1009.8
20260504215101 27 349 0.0 0.0 0.00 0.00 0.00 60 1010.1
20260504214557 27 76 1.6 3.2 0.00 0.00 0.00 60 1009.9
20260504214053 27 3 0.0 0.0 0.00 0.00 0.00 59 1010.5
20260504213549 27 343 0.0 0.0 0.00 0.00 0.00 58 1010.2
20260504213047 27 339 0.0 0.0 0.00 0.00 0.00 60 1010.3
20260504212542 27 350 0.0 0.0 0.00 0.00 0.00 57 1010.5
20260504212040 27 176 0.0 0.0 0.00 0.00 0.00 58 1010.4
20260504211537 27 79 0.0 0.0 0.00 0.00 0.00 59 1010.5
20260504211034 27 89 0.0 0.0 0.00 0.00 0.00 60 1010.6
20260504210531 27 43 0.0 0.0 0.00 0.00 0.00 59 1010.7
20260504210027 27 339 0.0 0.0 0.00 0.00 0.00 59 1010.6
20260504205526 27 66 0.0 0.0 0.00 0.00 0.00 59 1010.7
20260504205023 27 353 0.0 0.0 0.00 0.00 0.00 58 1010.8
20260504204521 28 24 0.0 0.0 0.00 0.00 0.00 58 1010.9
20260504204020 27 351 0.0 0.0 0.00 0.00 0.00 57 1011.1
20260504203518 27 9 0.0 0.0 0.00 0.00 0.00 59 1011.0
20260504203015 27 356 0.0 0.0 0.00 0.00 0.00 57 1011.0
20260504202510 27 359 0.0 0.0 0.00 0.00 0.00 58 1011.3
20260504202007 27 356 0.0 0.0 0.00 0.00 0.00 59 1011.2
20260504201504 27 21 0.0 0.0 0.00 0.00 0.00 60 1011.4
20260504201002 26 95 0.0 0.0 0.00 0.00 0.00 60 1011.7
20260504200458 26 146 0.0 0.0 0.00 0.00 0.00 60 1011.6
20260504195955 27 43 0.0 0.0 0.00 0.00 0.00 59 1011.8
20260504195450 27 317 0.0 0.0 0.00 0.00 0.00 58 1011.8
20260504194947 26 6 0.0 0.0 0.00 0.00 0.00 60 1012.0
20260504194443 27 339 0.0 0.0 0.00 0.00 0.00 57 1012.1
20260504193939 27 45 0.0 0.0 0.00 0.00 0.00 58 1012.0
20260504193437 27 133 0.0 0.0 0.00 0.00 0.00 59 1012.5
20260504192936 26 6 0.0 0.0 0.00 0.00 0.00 59 1012.2
20260504192432 26 5 0.0 0.0 0.00 0.00 0.00 59 1012.3
20260504191931 27 51 0.0 0.0 0.00 0.00 0.00 58 1012.5
20260504191430 27 87 0.0 0.0 0.00 0.00 0.00 56 1012.2
20260504190929 27 345 0.0 0.0 0.00 0.00 0.00 56 1012.5
20260504190425 27 345 0.0 0.0 0.00 0.00 0.00 56 1012.8
20260504185922 27 124 0.0 1.6 0.00 0.00 0.00 56 1012.6
20260504185420 27 152 0.0 0.0 0.00 0.00 0.00 57 1013.0
20260504184915 27 115 0.0 0.0 0.00 0.00 0.00 56 1012.9
20260504184411 27 141 0.0 1.6 0.00 0.00 0.00 56 1012.9
20260504183908 26 343 0.0 3.2 0.00 0.00 0.00 58 1012.8
20260504183405 26 339 0.0 0.0 0.00 0.00 0.00 59 1012.8
20260504182903 26 340 0.0 0.0 0.00 0.00 0.00 59 1012.9
20260504182359 26 356 0.0 0.0 0.00 0.00 0.00 60 1013.1
20260504181856 26 162 0.0 0.0 0.00 0.00 0.00 61 1013.1
20260504181354 26 344 0.0 0.0 0.00 0.00 0.00 60 1013.2
20260504180852 26 342 1.6 1.6 0.00 0.00 0.00 59 1013.3
20260504180350 26 309 1.6 3.2 0.00 0.00 0.00 58 1013.2
20260504175848 26 169 0.0 0.0 0.00 0.00 0.00 59 1013.5
20260504175345 26 332 0.0 0.0 0.00 0.00 0.00 58 1013.5
20260504174843 26 170 0.0 3.2 0.00 0.00 0.00 60 1013.4
20260504174340 26 342 0.0 1.6 0.00 0.00 0.00 59 1013.6
20260504173837 25 7 0.0 0.0 0.00 0.00 0.00 59 1013.6
20260504173334 25 1 0.0 0.0 0.00 0.00 0.00 59 1013.7
20260504172831 25 165 1.6 1.6 0.00 0.00 0.00 61 1013.8
20260504172327 25 327 0.0 0.0 0.00 0.00 0.00 60 1013.8
20260504171823 25 321 0.0 1.6 0.00 0.00 0.00 61 1013.8
20260504171321 25 328 0.0 0.0 0.00 0.00 0.00 62 1014.1
20260504170818 25 14 0.0 0.0 0.00 0.00 0.00 63 1014.0
20260504170315 25 349 0.0 0.0 0.00 0.00 0.00 64 1014.0
20260504160233 23 6 0.0 0.0 0.00 0.00 0.00 66 1014.9
20260504150658 21 357 0.0 0.0 0.00 0.00 0.00 70 1015.0
20260504150155 22 339 0.0 0.0 0.00 0.00 0.00 69 1014.9
20260504141124 19 69 0.0 0.0 0.00 0.00 0.00 73 1015.1
20260504140621 19 343 0.0 0.0 0.00 0.00 0.00 75 1014.9
20260504140117 18 4 0.0 0.0 0.00 0.00 0.00 76 1014.8
20260504130545 15 2 0.0 0.0 0.00 0.00 0.00 91 1014.9
20260504110432 13 2 0.0 0.0 0.00 0.00 0.00 93 1014.5
20260504100349 13 2 0.0 0.0 0.00 0.00 0.00 91 1014.7
20260504081742 14 2 0.0 0.0 0.00 0.00 0.00 88 1015.4
20260504081239 14 2 0.0 0.0 0.00 0.00 0.00 88 1015.2
20260504080735 14 2 0.0 0.0 0.00 0.00 0.00 87 1015.4
20260504080232 14 2 0.0 0.0 0.00 0.00 0.00 87 1015.4
20260504070159 15 2 0.0 0.0 0.00 0.00 0.00 84 1016.4
20260504060120 15 2 0.0 0.0 0.00 0.00 0.00 81 1017.0
20260504050548 16 2 0.0 0.0 0.00 0.00 0.00 76 1017.1
20260504045541 17 2 0.0 0.0 0.00 0.00 0.00 74 1017.3
20260504045037 17 2 0.0 0.0 0.00 0.00 0.00 72 1017.2
20260504044534 17 2 0.0 0.0 0.00 0.00 0.00 72 1017.2
20260504044031 17 2 0.0 0.0 0.00 0.00 0.00 70 1017.3
20260504043528 17 2 0.0 0.0 0.00 0.00 0.00 69 1017.6
20260504043026 18 2 0.0 0.0 0.00 0.00 0.00 67 1017.4
20260504042522 18 2 0.0 0.0 0.00 0.00 0.00 68 1017.4
20260504042019 18 2 0.0 0.0 0.00 0.00 0.00 67 1017.6
20260504041515 17 2 0.0 0.0 0.00 0.00 0.00 68 1017.2
20260504041011 17 2 0.0 0.0 0.00 0.00 0.00 67 1017.4
20260504040509 17 2 0.0 0.0 0.00 0.00 0.00 66 1017.3
20260504040005 18 2 0.0 0.0 0.00 0.00 0.00 67 1017.5
20260504035503 18 2 0.0 0.0 0.00 0.00 0.00 65 1017.3
20260504034959 18 2 0.0 0.0 0.00 0.00 0.00 63 1017.2
20260504034456 19 2 0.0 0.0 0.00 0.00 0.00 62 1017.3
20260504033953 19 2 0.0 0.0 0.00 0.00 0.00 62 1017.3
20260504033451 19 2 0.0 0.0 0.00 0.00 0.00 61 1017.4
20260504032948 19 70 0.0 0.0 0.00 0.00 0.00 60 1017.3
20260504032445 19 354 0.0 0.0 0.00 0.00 0.00 60 1017.5
20260504031942 20 354 0.0 0.0 0.00 0.00 0.00 60 1017.3
20260504031439 20 337 0.0 0.0 0.00 0.00 0.00 59 1017.3
20260504030936 20 351 0.0 0.0 0.00 0.00 0.00 60 1017.2
20260504030432 20 23 0.0 0.0 0.00 0.00 0.00 59 1017.2
20260504025928 19 6 0.0 0.0 0.00 0.00 0.00 60 1017.4
20260504025425 19 8 0.0 0.0 0.00 0.00 0.00 61 1017.2
20260504024922 19 4 0.0 0.0 0.00 0.00 0.00 61 1017.0
20260504024419 19 4 0.0 0.0 0.00 0.00 0.00 60 1017.1
20260504023916 19 4 0.0 0.0 0.00 0.00 0.00 61 1017.0
20260504023413 19 4 0.0 0.0 0.00 0.00 0.00 61 1016.9
20260504022908 20 4 0.0 0.0 0.00 0.00 0.00 62 1017.0
20260504022405 20 4 0.0 0.0 0.00 0.00 0.00 61 1017.1
20260504021901 20 4 0.0 0.0 0.00 0.00 0.00 59 1017.0
20260504021359 20 4 0.0 0.0 0.00 0.00 0.00 58 1016.8
20260504020856 20 4 0.0 0.0 0.00 0.00 0.00 59 1016.8
20260504020353 20 4 0.0 0.0 0.00 0.00 0.00 58 1016.8
20260504015849 20 4 0.0 0.0 0.00 0.00 0.00 57 1016.7
20260504015345 20 4 0.0 0.0 0.00 0.00 0.00 57 1016.8